[[{"header":{"parameterUnit":"m.s-1","parameterCategory":1,"la1":30.2991,"la2":30.254,"lo1":-89.0895,"lo2":-89.0444,"dy":0.0017,"dx":0.0017,"nx":28,"ny":28,"refTime":"2023-07-18T09:00:00:Z","depth":0,"parameterNumber":2,"parameterNumberName":"U-component_of_WINDS"},"data":[0,0,0,0,0,0,0,0,0,0,0,0,0,0,0,0,0,0,0,0,0,0,0,0,0,0,0,0,0,0,0,0,0,0,0,0,0,0,0,0,0,0,0,0,0,0,0,0,0,0,0,0,0,0,0,0,0,0,2.9088,2.9088,0,2.9131,2.9131,2.9132,2.9081,2.9079,2.9077,2.9075,2.9118,2.9121,2.9124,0,0,0,0,0,0,0,0,0,0,0,0,0,2.8958,2.8961,2.9088,2.9088,2.9089,2.9131,2.9131,2.9132,2.9081,2.9079,2.9077,2.9074,2.9117,2.9121,2.9124,0,0,0,0,0,0,0,0,0,0,0,0,0,2.9009,2.8962,2.9088,2.9069,2.9067,2.9131,2.9131,2.9132,2.9082,2.9079,2.9076,2.9073,2.9116,2.912,2.9125,2.9209,0,0,2.9138,2.914,0,0,0,0,0,0,0,0,2.9007,2.9014,2.9071,2.907,2.9069,2.9098,2.9102,2.9158,2.9082,2.9076,2.9075,2.9072,2.9114,2.9118,2.9132,2.9211,2.9212,2.9138,2.9141,2.9143,2.9144,0,0,0,0,0,0,0,2.9003,2.9012,2.9105,2.9072,2.907,2.9057,2.9061,2.9112,2.911,2.9077,2.9073,2.9079,2.9112,2.9128,2.9133,2.9213,2.9138,2.9142,2.9145,2.9147,2.9359,2.9361,0,0,0,0,0,0,2.9002,2.9009,2.9103,2.9106,2.903,2.9062,2.9066,2.9091,2.911,2.911,2.9081,2.9076,2.9122,2.9128,2.9134,2.9231,2.9143,2.9147,2.915,2.9356,2.9359,2.9362,0,0,0,0,0,0,2.9,2.9011,2.9102,2.9057,2.9067,2.9067,2.9095,2.9094,2.9109,2.9113,2.9112,2.9098,2.912,2.9128,2.919,2.9231,2.9149,2.9153,2.9352,2.9357,2.9361,2.9426,0,0,0,0,0,0,2.8996,2.901,2.9043,2.9058,2.907,2.9157,2.9098,2.9096,2.9117,2.9111,2.9128,2.9129,2.9119,2.9183,2.9194,2.9236,2.9156,2.9348,2.9354,2.9359,2.942,2.9432,2.9443,0,0,0,0,0,2.8992,2.906,2.9045,2.9057,2.9111,2.916,2.9167,2.9154,2.9121,2.9153,2.9155,2.9128,2.9226,2.919,2.9202,2.9246,2.9345,2.9352,2.9359,2.9415,2.943,2.9442,0,0,0,0,0,0,2.905,2.9062,2.9045,2.9121,2.914,2.9151,2.9191,2.9171,2.9199,2.9192,2.9175,2.918,2.9244,2.9252,2.9212,2.9326,2.928,2.9289,2.9319,2.9333,2.9344,2.9339,2.916,0,0,0,0,0,2.9072,2.9112,2.912,2.9186,2.9196,2.9192,2.9213,2.9202,2.9221,2.9228,2.9235,2.9254,2.9288,2.9311,2.9344,2.9422,2.9423,2.9457,2.9469,2.9478,2.9485,2.9523,2.9538,2.9385,2.9385,2.9385,0,0,2.9118,2.9129,2.9155,2.9198,2.9211,2.9251,2.9199,2.9245,2.9273,2.9235,2.9292,2.9298,2.9318,2.9387,2.9418,2.9395,2.9528,2.9486,2.9494,2.9496,2.9532,2.9546,2.9559,2.9389,2.9388,2.9388,0,0,2.922,2.9234,2.9288,2.9302,2.9323,2.932,2.9333,2.9348,2.935,2.9408,2.9378,2.9412,2.9473,2.9487,2.9502,2.9608,2.9583,2.9619,2.9677,2.9715,2.9727,2.9737,2.9771,2.9784,2.9627,2.9628,2.9628,0,2.9273,2.9333,2.9319,2.9365,2.9384,2.9351,2.9405,2.9419,2.945,2.9462,2.9437,2.951,2.9521,2.9592,2.9617,2.9632,2.9644,2.9616,2.9726,2.9737,2.9746,2.9779,2.9792,2.9632,2.9631,2.9631,2.963,0,2.9396,2.9437,2.9479,2.9508,2.9531,2.9582,2.9574,2.9599,2.9586,2.9585,2.9642,2.9655,2.9687,2.9704,2.9692,2.9772,2.9756,2.9729,2.9682,2.9765,2.9795,2.9808,2.9637,2.9636,2.9635,2.9634,0,0,2.9535,2.9555,2.957,2.9582,2.9601,2.9633,2.9681,2.9712,2.9733,2.9755,2.9792,2.9844,2.9818,2.9835,2.9824,2.9858,2.9936,2.9825,2.9825,2.9843,3.0021,3.0039,3.0054,2.9921,2.9923,2.9925,3.0018,0,2.9635,2.9717,2.9706,2.9784,2.9821,2.979,2.9831,2.9847,2.9847,2.9877,2.9877,2.9913,2.9878,2.9887,2.9919,2.992,2.9971,2.9913,2.9953,2.9955,2.9946,3.0071,3.009,3.0178,3.0031,3.0033,3.0034,0,2.9762,2.9787,2.9869,2.9881,2.9896,2.9933,2.9959,2.999,3.0006,3.0004,3.0022,3.0005,3.005,3.0005,3.0066,3.0027,3.0043,3.0045,3.0048,3.0049,2.9997,3.0071,3.0206,3.0218,3.0053,3.0052,3.005,0,2.9851,2.9906,2.9961,2.9973,2.9988,3.0014,3.0022,3.0036,3.0055,3.0078,3.009,3.0119,3.0134,3.0156,3.0146,3.0114,3.0208,3.0162,3.0205,3.0205,3.0224,3.0222,3.0359,3.024,3.024,3.0239,3.0239,0,2.9961,3.0012,3.0001,3.0035,3.009,3.0075,3.013,3.0134,3.0146,3.0179,3.0155,3.0186,3.0172,3.0202,3.0195,3.0244,3.0252,3.025,3.0247,3.025,3.025,3.0258,3.0251,3.0243,3.0242,3.0241,3.0241,0,3.0069,3.0064,3.0122,3.0131,3.0135,3.0175,3.0182,3.0213,3.0212,3.0253,3.0262,3.0259,3.0293,3.0285,3.0323,3.0317,3.0379,3.037,3.0373,3.037,3.0412,3.0406,3.0556,3.0573,3.0446,3.0447,3.0449,0,3.0138,3.0176,3.019,3.0209,3.0219,3.0252,3.0271,3.0258,3.0278,3.0299,3.0327,3.0358,3.0382,3.0437,3.0437,3.0465,3.0454,3.0505,3.0458,3.046,3.0451,3.0447,3.0449,3.0513,3.0515,3.0516,3.0517,0,3.026,3.0255,3.0284,3.031,3.0333,3.0354,3.0372,3.039,3.0379,3.0402,3.0436,3.0455,3.0492,3.0522,3.0548,3.0554,3.0533,3.0532,3.0543,3.0545,3.0544,3.0541,3.0395,3.0528,3.0527,3.0526,3.0525,3.0525,3.0348,3.0379,3.0393,3.0424,3.0436,3.0453,3.0482,3.0483,3.0511,3.054,3.0531,3.0569,3.0582,3.0614,3.0623,3.0652,3.0632,3.0649,3.0652,3.0656,3.0659,3.0542,3.0657,3.0656,3.0656,3.0656,3.0656,0,3.0466,3.0473,3.0502,3.0527,3.0551,3.053,3.0549,3.057,3.0603,3.0618,3.0642,3.0679,3.0708,3.0711,3.0738,3.076,3.075,3.0767,3.0763,3.0765,3.0677,3.0663,3.0774,3.0774,3.0774,3.0774,3.0774,3.0774,3.0529,3.0579,3.0576,3.0631,3.0638,3.0674,3.0686,3.0701,3.0712,3.0754,3.0778,3.078,3.0789,3.0816,3.0841,3.0841,3.085,3.087,3.0866,3.0783,3.0771,3.076,3.0747,3.0873,3.0873,3.0951,3.0952,3.0952]},{"header":{"parameterUnit":"m.s-1","parameterCategory":1,"la1":30.2991,"la2":30.254,"lo1":-89.0895,"lo2":-89.0444,"dy":0.0017,"dx":0.0017,"nx":28,"ny":28,"refTime":"2023-07-18T09:00:00:Z","depth":0,"parameterNumber":3,"parameterNumberName":"V-component_of_WINDS"},"data":[0,0,0,0,0,0,0,0,0,0,0,0,0,0,0,0,0,0,0,0,0,0,0,0,0,0,0,0,0,0,0,0,0,0,0,0,0,0,0,0,0,0,0,0,0,0,0,0,0,0,0,0,0,0,0,0,0,0,2.4096,2.4096,0,2.4178,2.4179,2.418,2.4163,2.4162,2.416,2.4159,2.4247,2.425,2.4254,0,0,0,0,0,0,0,0,0,0,0,0,0,2.3927,2.393,2.4096,2.4097,2.4098,2.4178,2.4179,2.418,2.4164,2.4162,2.416,2.4158,2.4246,2.425,2.4254,0,0,0,0,0,0,0,0,0,0,0,0,0,2.4004,2.3931,2.4095,2.4099,2.41,2.4177,2.4179,2.418,2.4164,2.4162,2.416,2.4158,2.4244,2.425,2.4255,2.4335,0,0,2.4272,2.4275,0,0,0,0,0,0,0,0,2.3999,2.401,2.4098,2.4099,2.41,2.4158,2.4151,2.4232,2.4165,2.414,2.4159,2.4156,2.4219,2.4227,2.4247,2.4339,2.4343,2.4273,2.4276,2.4279,2.428,0,0,0,0,0,0,0,2.3994,2.4006,2.4128,2.4099,2.4101,2.4097,2.4106,2.4167,2.4191,2.4142,2.4141,2.4151,2.422,2.4242,2.4249,2.4344,2.4273,2.4278,2.4281,2.4283,2.4503,2.4506,0,0,0,0,0,0,2.3987,2.4002,2.4126,2.4131,2.4043,2.4102,2.4112,2.4142,2.4191,2.4196,2.4153,2.415,2.4233,2.4243,2.4252,2.4348,2.4278,2.4284,2.4287,2.4501,2.4504,2.4507,0,0,0,0,0,0,2.3983,2.3998,2.4122,2.4066,2.4082,2.4107,2.4142,2.4145,2.4167,2.4199,2.4203,2.4171,2.4232,2.4244,2.4314,2.4351,2.4286,2.4291,2.4498,2.4502,2.4505,2.454,0,0,0,0,0,0,2.3979,2.3997,2.4027,2.4067,2.4085,2.4182,2.4144,2.4148,2.4176,2.4173,2.4217,2.4222,2.4231,2.4305,2.4319,2.4357,2.4296,2.4495,2.45,2.4504,2.4536,2.4544,2.4552,0,0,0,0,0,2.3973,2.4035,2.4029,2.4044,2.4123,2.4184,2.4194,2.4203,2.4179,2.421,2.423,2.4221,2.4344,2.4313,2.4328,2.4368,2.4493,2.4498,2.4504,2.4532,2.4543,2.4552,0,0,0,0,0,0,2.4001,2.404,2.4034,2.4111,2.4144,2.4181,2.422,2.4214,2.4256,2.4251,2.4261,2.4271,2.4341,2.4362,2.4326,2.4447,2.4415,2.4424,2.4431,2.4442,2.445,2.4443,2.43,0,0,0,0,0,2.4015,2.4061,2.4093,2.4158,2.4175,2.4195,2.4222,2.4225,2.426,2.4275,2.43,2.4336,2.4382,2.4413,2.4458,2.4538,2.4547,2.4573,2.4581,2.4588,2.4596,2.4638,2.465,2.4525,2.4525,2.4525,0,0,2.4047,2.4074,2.4103,2.4164,2.419,2.4238,2.4207,2.4259,2.4294,2.4283,2.435,2.4369,2.441,2.4484,2.4519,2.4503,2.4632,2.4595,2.46,2.4604,2.4645,2.4657,2.4668,2.4529,2.4528,2.4528,0,0,2.4129,2.4154,2.4209,2.4236,2.4275,2.4288,2.4301,2.4339,2.4351,2.4418,2.441,2.4453,2.4533,2.4562,2.4587,2.4677,2.467,2.4691,2.4734,2.4776,2.4785,2.4794,2.4826,2.4837,2.4699,2.4699,2.4699,0,2.4163,2.4233,2.4239,2.4291,2.4318,2.4309,2.4365,2.4391,2.4444,2.4463,2.4445,2.4544,2.4571,2.4652,2.4673,2.4694,2.471,2.4687,2.4783,2.4792,2.48,2.4831,2.4842,2.4701,2.4701,2.4701,2.4701,0,2.4274,2.4322,2.4363,2.4412,2.4443,2.4497,2.4512,2.4543,2.4543,2.4558,2.4625,2.4656,2.4707,2.4726,2.4728,2.4807,2.4796,2.4781,2.4749,2.4815,2.4843,2.4855,2.4705,2.4704,2.4703,2.4703,0,0,2.4376,2.4426,2.4441,2.4462,2.4504,2.4542,2.4596,2.4643,2.467,2.4706,2.4751,2.4818,2.4804,2.4832,2.4837,2.4873,2.4941,2.4853,2.4854,2.4868,2.5029,2.504,2.5054,2.4936,2.4939,2.4941,2.5026,0,2.4461,2.4554,2.456,2.4644,2.4689,2.468,2.4726,2.4757,2.4772,2.4812,2.4829,2.4876,2.4854,2.487,2.4906,2.4926,2.4974,2.492,2.4979,2.4981,2.4969,2.5069,2.5081,2.516,2.5037,2.5039,2.504,0,2.4573,2.461,2.4698,2.4732,2.4751,2.4793,2.4836,2.4875,2.491,2.4918,2.4948,2.4947,2.5002,2.4968,2.5044,2.5007,2.5031,2.5044,2.5047,2.5053,2.5015,2.5077,2.5186,2.5197,2.5058,2.5057,2.5055,0,2.4638,2.4711,2.4772,2.4791,2.4832,2.4861,2.488,2.4913,2.494,2.4978,2.4996,2.5041,2.5066,2.5101,2.5112,2.5086,2.5187,2.5154,2.5195,2.5195,2.5217,2.5216,2.5331,2.5234,2.5233,2.5233,2.5233,0,2.4732,2.4786,2.4802,2.484,2.49,2.4906,2.4966,2.4983,2.5012,2.5053,2.5048,2.5088,2.51,2.5141,2.5151,2.5211,2.5223,2.5231,2.5233,2.5231,2.523,2.5248,2.5242,2.5236,2.5236,2.5235,2.5234,0,2.4815,2.4827,2.4894,2.4927,2.4936,2.4979,2.5007,2.5044,2.5057,2.511,2.5122,2.5143,2.5192,2.5206,2.5265,2.5271,2.5342,2.5339,2.533,2.533,2.537,2.5366,2.5501,2.5518,2.541,2.5411,2.5412,0,2.4874,2.4915,2.4951,2.4978,2.4997,2.5041,2.5068,2.5076,2.5105,2.5147,2.5178,2.5225,2.5264,2.5341,2.5362,2.5407,2.5405,2.5449,2.5412,2.5408,2.5405,2.5402,2.5406,2.5456,2.5457,2.5458,2.5459,0,2.4977,2.498,2.502,2.5061,2.5093,2.5127,2.5159,2.5181,2.5194,2.5226,2.5275,2.5304,2.5363,2.541,2.5455,2.5475,2.5469,2.547,2.5482,2.5481,2.5473,2.5477,2.5349,2.5467,2.5466,2.5466,2.5465,2.5465,2.5049,2.5085,2.5115,2.5159,2.5183,2.5213,2.5248,2.5265,2.5305,2.5352,2.5355,2.5407,2.544,2.5499,2.5521,2.5563,2.555,2.5567,2.5572,2.5576,2.5579,2.5467,2.5571,2.5571,2.5571,2.557,2.557,0,2.5151,2.517,2.521,2.5254,2.5288,2.5278,2.5312,2.5342,2.5387,2.5418,2.5454,2.551,2.5555,2.5579,2.5624,2.5652,2.565,2.5664,2.5661,2.5666,2.5588,2.5573,2.5664,2.5664,2.5664,2.5664,2.5664,2.5664,2.5208,2.5267,2.5274,2.5345,2.5364,2.5414,2.5434,2.5462,2.5485,2.5547,2.5583,2.5598,2.5626,2.5672,2.5713,2.5719,2.5736,2.575,2.5755,2.5681,2.5672,2.5663,2.5648,2.5754,2.5754,2.5829,2.583,2.5831]}]]